Location: Epalinges
(46.5518°N, 6.6683°E)
Time: 20:08:53
(UTC+00:00)

Meteor 2-2 Rocket - Pass Details

Date: 20 June 2021
Orbit: 853 x 928 km, 81.3° (Epoch: 02 August)

Event Time Altitude Azimuth Distance (km) Brightness Sun altitude
Rises 00:48:08 0° 347° (NNW) 3,584 8.5 -18.1°
Reaches altitude 10° 00:50:38 10° 345° (NNW) 2,641 7.6 -17.9°
Maximum altitude 00:56:39 72° 263° (W) 977 4.4 -17.6°
Enters shadow 01:00:05 27° 185° (S) 1,710 5.2 -17.4°
